Flag for U.S.A. Weather past 2 weeks in Kalispell, Montana, U.S.A.

Now
50 °F

Mostly cloudy.


Feels Like: 47 °F
Forecast: 44 / 54 °F
Wind: 8 mph from South

Location: Kalispell - Glacier Park International

Current Time: Oct 23, 2014 at 10:40:10 AM

Latest Report: Oct 23, 2014 at 9:55 AM


Visibility: 10 mi

Pressure: 29.84 "Hg

Humidity: 86%

Dew point: 46 °F

Location of KalispellLocation

Historic Weather in Kalispell — Graph

°F

Kalispell temperature yesterday

Maximum temperature yesterday: 58 °F (at 2:55 PM)
Minimum temperature yesterday: 33 °F (at 5:55 AM)
Average temperature yesterday: 48 °F

Past Weeks' High & Low Weather Summary

 TemperatureHumidityPressure
High73 °F (Oct 9, 3:55 PM)100% (Oct 10, 5:55 AM)30.17 "Hg (Oct 10, 5:55 AM)
Low26 °F (Oct 17, 6:55 AM)24% (Oct 14, 1:55 PM)29.58 "Hg (Oct 15, 2:55 PM)
Average48 °F74%29.95 "Hg
* Reported Oct 8 8:55 AM — Oct 23 8:55 AM, Kalispell, Weather by CustomWeather, © 2014

Note: Actual official high and low records may vary slightly from our data, if they occured in-between our weather recording intervals... More about our weather records

Advertising

Kalispell weather history for previous 24 hours

 ConditionsComfort  
Time TempWeatherWind HumidityBarometerVisibility
8:55 AM
Oct 23
49 °FMostly cloudy.9 mph86%29.84 "Hg10 mi
7:55 AM49 °FLight rain. Overcast.9 mph86%29.82 "Hg10 mi
6:55 AM53 °FMostly cloudy.12 mph66%29.80 "Hg10 mi
5:55 AM52 °FOvercast.10 mph72%29.80 "Hg10 mi
4:55 AM48 °FOvercast.No wind86%29.82 "Hg10 mi
3:55 AM49 °FOvercast.No wind80%29.82 "Hg10 mi
2:55 AM49 °FLight rain. Overcast.No wind74%29.83 "Hg10 mi
1:55 AM53 °FOvercast.9 mph59%29.82 "Hg10 mi
12:55 AM56 °FOvercast.13 mph49%29.80 "Hg10 mi
11:55 PM
Oct 22
55 °FOvercast.10 mph53%29.81 "Hg10 mi
10:55 PM54 °FOvercast.12 mph53%29.82 "Hg10 mi
9:55 PM54 °FOvercast.6 mph55%29.85 "Hg10 mi
8:55 PM51 °FOvercast.No wind61%29.88 "Hg10 mi
7:55 PM52 °FPartly cloudy.6 mph57%29.89 "Hg10 mi
6:55 PM54 °FOvercast.8 mph55%29.90 "Hg10 mi
5:55 PM55 °FPartly sunny.10 mph51%29.92 "Hg10 mi
4:55 PM58 °FOvercast.15 mph46%29.92 "Hg10 mi
3:55 PM56 °FOvercast.15 mph49%29.92 "Hg10 mi
2:55 PM58 °FScattered clouds.17 mph47%29.91 "Hg10 mi
1:55 PM57 °FSunny.16 mph49%29.95 "Hg10 mi
12:55 PM54 °FSunny.9 mph57%29.99 "Hg10 mi
11:55 AM52 °FSunny.14 mph64%30.00 "Hg10 mi
10:55 AM49 °FSunny.3 mph74%30.01 "Hg10 mi
Weather by CustomWeather, © 2014

See weather overviewHow to use our weather pages